[Date Prev][Date Next][Thread Prev][Thread Next][Date Index][Thread Index]
[jamsat-news:1465] jas2info #222
========================   ºÇ¿·¾ðÊó   ==============================
        Last updated ¡§Sat.21APR2001 ¡¡15¡§20¡¡(JST) #222
        
====================================================================
   
  £±¡Ë¥¢¥Þ¥Á¥å¥¢ÄÌ¿®±ÒÀ±¾ðÊ󡢣ƣϥ·¥ê¡¼¥º¤Îµ°Æ»Í×ÁÇ¡¢¥Æ¥ì¥á¥È¥ê¡¢£Ñ£Ó£Ï¤Î
¡¡¡¡¡¡¾õ¶·Åù¤ò¤Þ¤È¤á¤Æ¤ß¤Þ¤·¤¿¡¥
¡¡¡¡¡¡
¡¡¡¡¡¡£Æ£Ï¡Ý£²£¹¤Î£²£°£°£±Ç¯£´·î£²£°Æü¡Ê¶â¡Ë¤Î£±£°¡§£´£±¡Ê£Ê£Ó£Ô¡Ë¤Î¥Ñ¥¹¤Ç¤Ï
¡¡¡¡£Ê£Á£Ò£Ì¤Î¥Û¡¼¥à¥Ú¡¼¥¸¤Î¤È¤¦¤ê¥¢¥Ê¥í¥°±¿ÍѤǤ·¤¿¡£´Ñ¬¤·¤¿¥Æ¥ì¥á¥È¥ê¡¼¤È
¡¡¡¡Ê¬ÀÏ·ë²Ì¤ò·ÇºÜ¤·¤Æ¤ª¤¤Þ¤¹.
AS23079C1   20APR2001
10:42-10:53(JST)
Freq.435.801-.790MHz
                                                      BO 8A B2 AA AE B3 AC 
HI HI AE C7 88 55 00 D4 05 3E 09 73 8D 82 5B 5F 91 8F B0 89 B1 A9 AE B3 AC
HI HI AE C7 88 55 00 D4 05 3E 09 73 8D 84 58 60 92 91 B0 5E B1 A9 AE B3 AC 
HI HI AE C7 88 55 00 D4 05 3E 09 73 8D 86 55 60 91 90 B0 9F B1 A9 AE B3 AC 
HI HI AE C7 88 55 00 D4 05 3E 09 73 8D 88 54 60 91 8F B0 7E B1 A9 AE B3 AC 
HI HI AE C7 88 55 00 D4 05 3E 09 73 8D 8A 53 60 91 8F B0 75 B1 A9 AE B3 AC 
HI HI AE C7 88 55 00 D4 05 3E 09 73 8F 8B 56 60 91 8F B0 80 B1 A9 AE B3 AC 
HI HI AE C7 88 55 00 D4 05 3E 09 73 90 8D 5B 60 91 8F B0 83 B1 A9 AE B3 AC  
HI HI AE C7 88 55 00 D4 05 3E 09 73 95 90 5E 60 91 90 B0 87 B0 A8 AE B2 AC 
HI HI AE C7 88 55 00 D4 05 3E 09 73 97 91 60 60 91 90 B0 83 B0 A8 AE B2 AC 
HI HI AE C7 88 55 00 D4 05 3E 09 73 9A 91 60 60 92 90 B0 66 B0 A8 AE B2 AC 
HI HI AE C7 88 55 00 D4 05 3E 09 73 9C 91 5F 60 92 90 B0 68 B0 A8 AE B2 AE
HI HI AE C7 88 55 00 D4 05 3E 09 73 9F 90 5B 60 92 90 B0 8B AF A8 AE B2 AC 
HI HI AE C7 88 55 00 D4 05 3E 09 73 A2 90 5C 60 92 90 B0 A6 AF A8 AE B1 AC 
HI HI AE C7 88 55 00 D4 05 3E 09 73 A4 90 5B 60 92 90 B0 7B AF A8 AE B1 AC 
HI HI AE C7 88 55 00 D4 05 3E 09 73 A7 8D 5C 60 92 91 B0 98 AF A8 AE B1 AC 
HI HI AE C7 88 55 00 D4 05 3E 09 73 A9 8B 5C 60 92 91 B0 9F AF A8 AE B1 AC  
AS23025C1  16APR2001
10:55-11:01(JST)
Freq.435.801-.790MHz
HI HI AE C7 88 55 00 D4 9F DC 09 01 82 7A 6D 60 92 90 B0 62 B0 AC AE B1 AE 
HI HI AE C7 88 55 00 D4 9F DC 09 01 8E 78 67 60 92 90 B0 85 B0 AC AE B1 AE 
HI HI AE C7 88 55 00 D4 9F DC 09 01 97 72 66 60 92 90 B0 7D B0 AC AE B1 AE 
HI HI AE C7 88 55 00 D4 9F DC 09 01 A1 6A 6C 60 92 91 B0 86 AF AB AE B0 AE 
HI HI AE C7 88 55 00 D4 9F DC 09 01 A6 5F 71 60 92 91 B0 88 B0 AB AE B0 AE 
HI HI AE C7 88 55 00 D4 9F DC 09 01 A6 52 78 60 93 91 B0 70 B0 AB AE B0 AE 
HI HI AE C7 88 55 00 D4 9F DC 09 01 A2 46 7F 60 93 91 B0 73 AF AB AE B1 AE 
HI HI AE C7 88 55 00 D4 9F DC 09
 
¡¡------------------------¡¡£Æ£Ï-£²£¹¤Îµ°Æ»Í×ÁÇ¡¡------------------------------        
 
¡¡¡¡¢£ µ°Æ»Í×ÁÇ£±¡§¡Öjamsat¡Ýkeps¡§£±£°£¹£´¡×¤è¤ê         
¡¡¡¡¡¡¡¡¡¡¡¡¡¡¡¡¡¡¡¡SB KEPS @ AMSAT  $ORB01109.N
¡¡¡¡¡¡¡¡¡¡¡¡¡¡¡¡¡¡¡¡2Line Orbital Elements 01109.AMSAT
HR AMSAT ORBITAL ELEMENTS FOR AMATEUR SATELLITES IN NASA FORMAT
FROM WA5QGD FORT WORTH,TX April 19, 2001
SEND SUBSCRIBE/UNSUBSCRIBE TO majordomo@amsat.org ONLY
BID: ORB01109.N
¡¡DECODE 2-LINE ELSETS WITH THE FOLLOWING KEY:
¡¡1 AAAAAU 00  0  0 BBBBB.BBBBBBBB  .CCCCCCCC  00000-0  00000-0 0  DDDZ
¡¡2 AAAAA EEE.EEEE FFF.FFFF GGGGGGG HHH.HHHH III.IIII JJ.JJJJJJJJKKKKKZ
¡¡KEY: A-CATALOGNUM B-EPOCHTIME C-DECAY D-ELSETNUM E-INCLINATION F-RAAN
¡¡G-ECCENTRICITY H-ARGPERIGEE I-MNANOM J-MNMOTION K-ORBITNUM Z-CHECKSUM
FO-29
1 24278U 96046B   01109.17875802 -.00000078  00000-0 -45349-4 0  4077
2 24278  98.5540 342.3897 0351529 154.6333 207.2533 13.52767990230660
 ¢£ µ°Æ»Í×ÁÇ£²¡§¡Öjamsat¡Ýkeps¡§£±£°£¹£µ¡×¤è¤ê             ¡¡¡¡¡¡¡¡¡¡¡¡¡¡¡¡
¡¡¡¡¡¡¡¡¡¡¡¡¡¡¡¡SB KEPS @ AMSAT  $ORB01109.O
¡¡¡¡¡¡¡¡¡¡¡¡¡¡¡¡Orbital Elements  01109.OSCAR
HR AMSAT ORBITAL ELEMENTS FOR OSCAR SATELLITES
FROM WA5QGD FORT WORTH,TX April 19, 2001
SEND SUBSCRIBE/UNSUBSCRIBE TO majordomo@amsat.org ONLY
BID: ORB01109.O
TO ALL RADIO AMATEURS BT
¡¡
Satellite: FO-29
Catalog number: 24278
Epoch time:      01109.17875802
Element set:     407
Inclination:       98.5540 deg
RA of node:       342.3897 deg
Eccentricity:    0.0351529
Arg of perigee:   154.6333 deg
Mean anomaly:     207.2533 deg
Mean motion:   13.52767990 rev/day
Decay rate:       -7.8e-07 rev/day^2
Epoch rev:           23066
Checksum:              326
-------------------¡¡¡¡FO-29¡ÊJAS-2)¤Î¥Æ¥ì¥á¥È¥ê¤Ë´Ø¤¹¤ë¾ðÊó¡¡¡¡----------------------¡¡
¡¡
£²¡Ë¾åµ¥Æ¥ì¥á¥È¥ê¡¼£´·î£²£°Æü¡Ê¶â¡Ë¤Î¥Æ¥ì¥á¥È¥êºÇ½ª¹Ô¤òʬÀϤ·¤Æ¤ª¤¤Þ¤¹.
AS23079C1   20APR2001
10:42-10:53(JST)
Freq.435.801-.790MHz
HI HI AE C7 88 55 00 D4 05 3E 09 73 A9 8B 5C 60 92 91 B0 9F AF A8 AE B1 AC  
¥Æ¥ì¥á¥È¥ê¡¡  Æâ¡¡ÍÆ¡¡ ¡¡¡¡¡¡  ´¹»»»»ÃÍ¡¡Ã± °Ì  
£³£Ã	¼§µ¤¥»¥ó¥µ¡¼£Ú¼´=	82843.1	[nT]
£³£Ä	¼§µ¤¥»¥ó¥µ£Ø¼´	=	68137.2	[nT]
£´£Á	ÂÀÍÛÅÅÃÓȯÀ¸ÅÅή=	  902.0	[mA]
£´£Â	£Â½¼ÊüÅÅÅÅή	=	 -118.4	[mA]
£´£Ã	£Âü»ÒÅ۵	=	   15.7	[V]
£´£Ä	£ÂÃæ´Öü»ÒÅ۵	=	    7.0	[V]
£µ£Á	¥Ð¥¹Å۵	=	   17.3	[V]
£µ£Â	£Ê£Ô£ÁÁ÷¿®ÅÅÎÏ	=	  935.4	[mW]
£µ£Ã 	¹½Âβ¹ÅÙ£±	=	   13.9	[¡î]
£µ£Ä	¹½Âβ¹ÅÙ£²	=	   16.6	[¡î]
£¶£Á	¹½Âβ¹ÅÙ£³	=	   14.3	[¡î]
£¶£Â	¹½Âβ¹ÅÙ£´	=	   13.1	[¡î]
£¶£Ã	£Â¥»¥ë²¹ÅÙ	=	   15.1	[¡î]
¡¡¡¡¡¡	
 ===========================¡¡¡¡FO-29¡Ê¤Õ¤¸£³¹æ¡Ë¤ÎQSO¾ðÊóÅù¡¡======================
   
¡¡£³)[jamsat-bb:
 ===============================================================================
¡¡¡¡¡¡£´¡Ë£Ê£Á£Ò£Ì ¤Î¥Û¡¼¥à¥Ú¡¼¥¸¤Ë±¿ÍÑͽÄ꤬µºÜ¤µ¤ì¤Æ¤¤¤Þ¤·¤¿¤Î¤Ç¤´¾Ò²ð¤·¤Þ¤¹¡¥
       ¡Ê http://www.jarl.or.jp/Japanese/3_Fuji/new/uy.htm ¡Ë
        ¢£ ¤Õ¤¸£³¹æ¡¿FO¡¼29/JAS-2 ¢£  
  ¡¡
¡¡¡¡¡¡¡¡¡¡¡ö¡ö¡ö¡¡±¿ÍÑͽÄê¤Ë¤Ä¤¤¤Æ¡¡¡ö¡ö¡ö
¡¡¡¡¡¡¡¡¡¡£´·î£²Æü¡¡¡Á¡¡£··î£²Æü ¥¢¥Ê¥í¥°·Ï±¿ÍÑ
¡¡¡¡¡ö¤Ê¤ª¡¤±¿ÍÑͽÄê¤ÏÅÔ¹ç¤Ë¤è¤êÊѹ¹¤¹¤ë¤³¤È¤¬¤¢¤ê¤Þ¤¹¤Î¤Çͽ¤á¤´Î»¾µ´ê¤¤¤Þ¤¹¡£
¡¡¾È²ñÀè¡¡¡§¡¡lab@jarl.or.jp
¡¡ºÇ¿·¤Î¾ðÊó¤Ï¥Æ¥ì¥Û¥ó¥µ¡¼¥Ó¥¹¡Ê£°£³¡Ý£³£¹£´£²¡Ý£±£°£°£°¡Ë¤ò¤ªÊ¹¤¤¯¤À¤µ¤¤¡£¡¡¡¡
¡¡°Ê¸å¤Î±¿ÍѤˤĤ¤Þ¤·¤Æ¤ÏÊ¿À®£±£³Ç¯£··î¾å½Ü¤Ë¤ªÃΤ餻Ãפ·¤Þ¤¹¡£¡¡¡¡¡¡¡¡
¡¡¡¡¡¡¡¡
-----------------------    £Æ£Ï¡Ý£²£°¡ÊJAS-£±£â¡ËÆ»Í×ÁÇ   -------------------------
 ¡¡£µ¡Ë
 ¡¡¢£ µ°Æ»Í×ÁÇ£± ¡§½Ðŵ¤Ï£Æ£Ï-£²£¹¡Ö¤Õ¤¸£³¹æ¡×¤ËƱ¤¸¡¥
  
FO-20
1 20480U 90013C   01109.23246798 -.00000019  00000-0  22019-4 0  3059
2 20480  99.0657 188.6670 0540931  82.6406 283.5809 12.83292140524532
 
 ¡¡¢£ µ°Æ»Í×ÁÇ£² ¡§½Ðŵ¤Ï£Æ£Ï¡Ý£²£¹¡Ö¤Õ¤¸£³¹æ¡×¤ËƱ¤¸¡¥
               
Satellite: FO-20
Catalog number: 20480
Epoch time:      01109.23246798
Element set:     305
Inclination:       99.0657 deg
RA of node:       188.6670 deg
Eccentricity:    0.0540931
Arg of perigee:    82.6406 deg
Mean anomaly:     283.5809 deg
Mean motion:   12.83292140 rev/day
Decay rate:       -1.9e-07 rev/day^2
Epoch rev:           52453
Checksum:              304
¡¡
¡¡--------------------------------------------------------------------------------
¡¡
¡¡        ¢£ ¤Õ¤¸£²¹æ¡¿£Æ£Ï¡Ý£²£°/JAS-1£â ¢£  ¡¡   
            
¡¡¡¡¡¡¡¡¡¡¡¡¡¡¡¡¡¡¡¡¡Ö¤Õ¤¸£²¹æ¡×¡¡¸½¶·                                                                                  
             
   JAS-1b¡Ê¤Õ¤¸£²¹æ¡Ë¤Î£Ã£×¥Æ¥ì¥á¥È¥ê¿®¹æ¤Ë¡¤£±£¹£¹£·Ç¯£±£°·î£±£²Æü£±£²»þ¡Ê£Ê£Ó£Ô¡Ë¤Î
¡¡ÆüËܾå¶õÄ̲á»þ¡¤£³·å¤Î¿ô»ú¤¬·«¤êÊÖ¤µ¤ì¤ë¤Ï¤º¤¬£³¸Ä¤ÎĹ²»¤Î·«¤êÊÖ¤·¤È¤Ê¤Ã¤Æ¤¤¤ë¤È¤¤¤¦
¡¡°Û¾ï¤¬È¯¸«¤µ¤ì¤Þ¤·¤¿¡£¤³¤ÎÉÔ¶ñ¹ç¤Ï¼¡¤ÎÄ̲á»þ¤«¤é¤Ï²óÉü¤·¤Æ¤¤¤Þ¤·¤¿¤¬£±£³Æü£±£µ»þ£²£°Ê¬¤Î
¡¡Ä̲á»þ¤ËºÆ¤Ó´Ñ¬¤µ¤ì¤Þ¤·¤¿¡£¸½ºß¤Ï£Á£°¤ÎÁ÷¿®¤¬Â³¤¤¤Æ¤¤¤Þ¤¹¡£±ÒÀ±¤Î¥¢¥Ê¥í¥°·ÏÃæ·Ñ¥â¡¼¥É
¡¡Æ°ºî¤Ï°Û¾ï¤¬Ìµ¤¯¡¤Àµ¾ï»þ¤Î¥Æ¥ì¥á¥È¥êÆâÍÆ¤«¤é¤Ï±ÒÀ±¤Îưºî¤Ë°Û¾ï¤Ïǧ¤á¤é¤ì¤Þ¤»¤ó¡£½¾¤Ã¤Æ¡¤
¡¡Ä¾¤Á¤Ë±ÒÀ±¤Î¥ß¥Ã¥·¥ç¥ó¤Ë±Æ¶Á¤¹¤ë¤³¤È¤Ï̵¤¤¤ÈͽÁÛ¤µ¤ì¤Þ¤¹¤Î¤Ç¡¤ÅöÌ̤ϥ¢¥Ê¥í¥°·ÏÃæ·Ñ
¡¡¥â¡¼¥É¤ò·Ñ³¤·¤Þ¤¹¡£±ÒÀ±¤Ï´û¤ËÂǤÁ¾å¤²¤Æ¤«¤é£·Ç¯£¸¥ö·î¤ò·Ð¤Æ¤ª¤ê¤Þ¤¹¤Î¤Ç¡¤º£¸å¤Ï´Æ»ë¤ò
¡¡¶¯²½¤¹¤ëͽÄê¤Ç¤¹¡£¥¢¥Þ¥Á¥å¥¢³Æ°Ì¤Î¥ì¥Ý¡¼¥È¤ò¤ªÂÔ¤Á¤·¤Þ¤¹¡£
¡¡-------------------------------------------------------------------------------- 
¡¡¡¡1997ǯ10·î14Æü¡¡00»þ35ʬ ³Îǧ¤Î¥Æ¥ì¥á¥È¥ê²» 151 KB ¡Ê£Á£°¡Ë 
¡¡¡¡1997ǯ10·î14Æü¡¡11»þ10ʬ ³Îǧ¤Î¥Æ¥ì¥á¥È¥ê²» 216 KB ¡Ê°Û¾ï¥¡¼¥¤¥ó¥°¡Ë 
  °Ê¾å¡¡£Ê£Á£Ò£Ì¤Î¥Û¡Ý¥à¥Ú¡¼¥¸¤Î http://www.jarl.or.jp/Japanese/3_Fuji/new/fuji.htm
===================== FO-20¡¡¤Õ¤¸£²¹æ¡¡¤Î¥Æ¥ì¥á¥È¥ê´Ñ¬·ë²Ì¡¡====================
   £±£²·î£²£²Æü¡Ê¶â¡Ë¤Î£±£²¡§£²£±¡ÊJST)¤Î¥Ñ¥¹¤Î´Ñ¬·ë²Ì¤Ç¤Ï°ÊÁ°´Ñ¬¤·¤¿
¡¡Ã±°ì¼þÇÈ¿ô¤Î¥É¥Ã¥×¥é¡¼¸ú²Ì¤Ç¼þÇÈ¿ô¤¬¤º¤ì¤Æ¤¤¤¯¤Î¤ß¤Î¾õÂÖ¤ËÌá¤Ã¤Æ¤ª¤ê¤Þ¤·¤¿¡£
                                         
   =============   JAS-2 ¡Ê¤Õ¤¸£³¹æ¡Ë¤È¸½ºß¤Þ¤Ç¤Î¾ðÊó   ===========
  
  £Á¡¥ÅÅÏäˤè¤ë¤Õ¤¸£³¹æ¤Î±¿ÍѾðÊó
      ¼ÒÃÄË¡¿ÍÆüËÜ¥¢¥Þ¥Á¥å¥¢Ï¢ÌÁ¤Ë¤è¤ë¥µ¡¼¥Ó¥¹
           £Ô£Å£Ì ¡¥   £°£³¡Ý £³£¹£´£² ¡Ý £±£°£°£°
  £Â¡¥¥¢¥Þ¥Á¥å¥¢ÌµÀþ£Æ£Á£Ø¥µ¡¼¥Ó¥¹
      £Ê£Á£Ò£Ì¤Ë¤è¤ë¤Õ¤¸£³¹æ¤Îµ°Æ»¾ðÊó¡Ê¥ª¡¼¥Ó¥Ã¥È¥«¥ì¥ó¥À¡¼¡Ë
         £Æ£Á£Ø £Î£ï¡¥  £°£³¡Ý £³£²£³£³ ¡Ý£°£°£µ£µ
  £Ã¡¥£×£×£×¥Ö¥é¥¦¥¶¤Ç¾ðÊó¤ò´Êñ¤Ë¸«¤ì¤ë¿Í¤Î¤¿¤á¤Ë£Ê£Á£Ó¡Ý£²
     ¤Õ¤¸£³¹æ¤Î±ÒÀ±¤È¤·¤Æ¤Î±¿ÍѤµ¤ì¤ë¤Þ¤Ç¤Î̾Á°¡Ë¤Î³µÍס¢ÂǤÁ¾å¤²
     ¤Þ¤Ç¤Î¾õ¶·¡¢±¿ÍÑÃæ¤Ë¤ª¤±¤ë¾õ¶·¤òÀâÌÀ¤·¤¿¥Û¡¼¥à¥Ú¡¼¥¸¤ò¾Ò²ð¤·
     ¤Æ¤ª¤¤Þ¤¹¡¥
    ¡ ¼ÒÃÄË¡¿ÍÆüËÜ¥¢¥Þ¥Á¥å¥¢ÌµÀþÏ¢ÌÁ¡Ê£Ê£Á£Ò£Ì¡Ë¤Î¥Û¡¼¥à¥Ú¡¼¥¸
          http://www.jarl.or.jp/Japanese/3_Fuji/jasmenu.htm
 
    ¢ ±§Ã賫ȯ»ö¶ÈÃġʣΣÁ£Ó£Ä£Á¡Ë¥Û¡¼¥à¥Ú¡¼¥¸ 
          http://www.nasda.go.jp/
         ÂǾ夲±ÒÀ±¡¡¡§Ãϵå´Ñ¬¥×¥é¥Ã¥È¥Õ¥©¡¼¥àµ»½Ñ±ÒÀ±¡ÊADEOS¡Ë 
                       ¥¢¥Þ¥Á¥å¥¢±ÒÀ±£³¹æ(JAS-2)
          http://yyy.tksc.nasda.go.jp/Home/Press/Press-j/jas-2_j.html        
  £Ä¡¥£Ê£Á£Í£Ó£Á£Ô¤Ë¤è¤ëµ°Æ»¾ðÊó¤Î³èÍÑ
        JAMSAT¤Î¥Û¡¼¥à¥Ú¡¼¥¸¤Þ¤¿¤Ïjamsat¡Ýkeps¤Îµ°Æ»Í×ÁǤè¤ê
      ±ÒÀ±¤Îµ°Æ»¾ðÊó¤òÆÀ¤ë¡¥
     £Ê£Á£Í£Ó£Á£Ô¥Û¡¼¥à¥Ú¡¼¥¸
               £Õ£Ò£Ì    http://www.jamsat.or.jp
       ¾åµ¥Û¡¼¥à¥Ú¡¼¥¸¤Ç¤Ï³ÆÃϤǹԤï¤ì¤ë¥¢¥Þ¥Á¥å¥¢ÄÌ¿®±ÒÀ±¤Ë´Ø¤¹¤ë
      ¥ß¥å¡¼¥Æ¥£¥ó¥°¤Î¤ªÃΤ餻¤äÀ¤³¦¤Î¥¢¥Þ¥Á¥å¥¢±ÒÀ±¤Ë´Ø¤¹¤ë¾ðÊó¤¬
      ËþºÜ¤µ¤ì¤Æ¤¤¤Þ¤¹¡¥
¡¡========================================================================  
¡¡    £Ê£Á£Í£Ó£Á£Ô¤Î¥á¥ó¥Ð¡¼¤Î¤´¶¨ÎϤˤè¤ê£Ê£È£¶£Í£Í£Å¡Ê¹â»³ ½¨Â¤¡Ë¤¬
    ¼¹É®¡¦ÊÔ½¸¤òôÅö¤·¤Æ¤ª¤ê¤Þ¤¹¡¥¤´»ØÅ¦¤Î°Õ¸«¡¢µ¿Ìä¤ä¤³¤Î¤è¤¦¤Ë¤·¤¿¤é
    ¤È¤¤¤¦¥¢¥¤¥Ç¥¢¤¬¤¢¤ê¤Þ¤·¤¿¤é¾®¤µ¤Ê¤³¤È¤Ç¤â¤«¤Þ¤¤¤Þ¤»¤ó¤Î¤Çµ¤·Ú¤Ë²¼
    µ¥¢¥É¥ì¥¹¤Þ¤Ç¤´Ï¢Íí¤¯¤À¤µ¤¤¡¥£ê£á£í£ó£á£ô¡Ý£î£å£÷£ó¤«¤é£ê£á£ó£²
    £é£î£æ£ï¤Ø¤ÎžºÜ¤ò£Ê£È£´£Ð£È£×¶Éºä°æ¤µ¤ó¤ËôÅö¤·¤ÆÄº¤¤¤Æ¤ª¤ê¤Þ¤¹¡¥  
                  E-mail : jh6mme@jamsat.or.jp : jh4phw@jamsat.or.jp
 ===============================   £Å£Î£Ä  ===============================